STARLINK-35779

Last updated on Fri Dec 19 2025 00:02:10 GMT+0000 (Coordinated Universal Time)

1 67047U 25294T 25351.83335648 -.01379026 56706-3 -32092-2 0 9997 2 67047 43.0001 151.2578 0001790 279.1169 146.7506 15.96210119 2124
UTC large
Height (km)
Speed (km/s)
/
Latitude / Longitude
Inclination (degrees)
Orbital Period (minutes)
Azimuth
Elevation
Range (km)
Doppler Factor

Next 0 passes for location: London (51.5072 / 0.1276)

Sorry there are no passes over London.